Weather History for Christchurch, New Zealand

Change the Weather History Date:

Saturday, November 2, 2013

  Actual Average Record
Temperature  
Mean Temperature 46 °F -  
Max Temperature 60 °F 62 °F - ()
Min Temperature 33 °F 43 °F - ()
Degree Days  
Heating Degree Days 18    
Moisture  
Dew Point 42 °F    
Average Humidity 78    
Maximum Humidity 100    
Minimum Humidity 55    
Precipitation  
Precipitation 0.00 in - - ()
Sea Level Pressure  
Sea Level Pressure 29.80 in    
Wind  
Wind Speed 5 mph ()    
Max Wind Speed 17 mph    
Max Gust Speed -    
Visibility 6.2 miles    
Events      
T = Trace of Precipitation, MM = Missing Value Source: Averaged Metar Reports

Daily Weather History Graph

Daily Weather History Graph

Search for Another Location

Airport:

Trip Planner

Search our weather history database for the weather conditions in past years. The results will help you decide how hot, cold, wet, or windy it might be!

Date:

Astronomy

Nov. 02, 2013 Rise Set
Actual Time 6:11 AM NZDT 8:16 PM NZDT
Civil Twilight 5:39 AM NZDT 8:47 PM NZDT
Nautical Twilight 5:01 AM NZDT 9:26 PM NZDT
Astronomical Twilight 4:19 AM NZDT 10:08 PM NZDT
Moon 5:09 AM NZDT (11/2) 6:45 PM NZDT (11/2)
Length of Visible Light 15h 07m
Length of Day
14h 05m
Waning Crescent, 3% of the Moon is Illuminated
Nov 2
Waning Crescent
Nov 4
New
Nov 10
First Quarter
Nov 18
Full
Nov 26
Last Quarter

Hourly Weather History & Observations

Time (NZDT) Temp. Windchill Dew Point Humidity Pressure Visibility Wind Dir Wind Speed Gust Speed Precip Events Conditions
12:00 AM 41.0 °F 38.0 °F 39.2 °F 93% 29.80 in 6.2 mi NNW 4.6 mph - N/A   Unknown
12:30 AM 41.0 °F 39.0 °F 39.2 °F 93% 29.80 in 6.2 mi NW 3.5 mph - N/A   Unknown
1:00 AM 41.0 °F 39.0 °F 39.2 °F 93% 29.80 in 6.2 mi ENE 3.5 mph - N/A   Unknown
1:30 AM 39.2 °F 37.0 °F 39.2 °F 100% 29.80 in 6.2 mi ESE 3.5 mph - N/A   Unknown
2:00 AM 39.2 °F 35.0 °F 39.2 °F 100% 29.80 in 6.2 mi ESE 5.8 mph - N/A   Unknown
2:30 AM 39.2 °F - 39.2 °F 100% 29.80 in 6.2 mi North 1.2 mph - N/A   Unknown
3:00 AM 39.2 °F - 37.4 °F 93% 29.80 in 6.2 mi NE 2.3 mph - N/A   Unknown
3:30 AM 35.6 °F - 35.6 °F 100% 29.80 in 6.2 mi ENE 1.2 mph - N/A   Unknown
4:00 AM 35.6 °F 32.8 °F 35.6 °F 100% 29.80 in 6.2 mi WNW 3.5 mph - N/A   Unknown
4:30 AM 35.6 °F 31.7 °F 35.6 °F 100% 29.80 in 6.2 mi WNW 4.6 mph - N/A   Unknown
5:00 AM 35.6 °F 32.8 °F 35.6 °F 100% 29.80 in 6.2 mi WNW 3.5 mph - N/A   Unknown
5:30 AM 33.8 °F - 33.8 °F 100% 29.80 in 6.2 mi West 1.2 mph - N/A   Unknown
6:00 AM 33.8 °F 29.6 °F 33.8 °F 100% 29.80 in 6.2 mi WSW 4.6 mph - N/A   Unknown
6:30 AM 33.8 °F 30.8 °F 33.8 °F 100% 29.80 in 6.2 mi SW 3.5 mph - N/A   Unknown
7:00 AM 35.6 °F - 35.6 °F 100% 29.80 in 6.2 mi South 2.3 mph - N/A   Unknown
7:30 AM 39.2 °F - 39.2 °F 100% 29.80 in 6.2 mi WNW 1.2 mph - N/A   Unknown
8:00 AM 42.8 °F - 42.8 °F 100% 29.80 in 6.2 mi Calm Calm - N/A   Unknown
8:30 AM 46.4 °F - 44.6 °F 93% 29.83 in 6.2 mi North 2.3 mph - N/A   Unknown
9:00 AM 50.0 °F - 44.6 °F 82% 29.83 in 6.2 mi ENE 1.2 mph - N/A   Unknown
9:30 AM 51.8 °F - 44.6 °F 76% 29.83 in 6.2 mi East 5.8 mph - N/A   Unknown
10:00 AM 53.6 °F - 42.8 °F 67% 29.83 in 6.2 mi East 6.9 mph - N/A   Unknown
10:30 AM 53.6 °F - 42.8 °F 67% 29.83 in 6.2 mi East 4.6 mph - N/A   Unknown
11:00 AM 55.4 °F - 42.8 °F 63% 29.83 in 6.2 mi NE 8.1 mph - N/A   Unknown
11:30 AM 55.4 °F - 42.8 °F 63% 29.83 in 6.2 mi NE 9.2 mph - N/A   Unknown
12:00 PM 57.2 °F - 44.6 °F 63% 29.83 in 6.2 mi NE 9.2 mph - N/A   Unknown
12:30 PM 57.2 °F - 44.6 °F 63% 29.83 in 6.2 mi ENE 9.2 mph - N/A   Unknown
1:00 PM 57.2 °F - 42.8 °F 59% 29.83 in 6.2 mi ENE 8.1 mph - N/A   Unknown
1:30 PM 59.0 °F - 44.6 °F 59% 29.80 in 6.2 mi ENE 8.1 mph - N/A   Unknown
2:00 PM 59.0 °F - 46.4 °F 63% 29.80 in 6.2 mi ENE 10.4 mph - N/A   Unknown
2:30 PM 60.8 °F - 44.6 °F 55% 29.80 in 6.2 mi ENE 11.5 mph - N/A   Unknown
3:00 PM 60.8 °F - 46.4 °F 59% 29.80 in 6.2 mi East 12.7 mph - N/A   Unknown
3:30 PM 60.8 °F - 44.6 °F 55% 29.77 in 6.2 mi East 12.7 mph - N/A   Unknown
4:00 PM 59.0 °F - 42.8 °F 55% 29.77 in 6.2 mi ENE 13.8 mph - N/A   Unknown
4:30 PM 59.0 °F - 46.4 °F 63% 29.74 in 6.2 mi ENE 15.0 mph - N/A   Unknown
5:00 PM 59.0 °F - 44.6 °F 59% 29.74 in 6.2 mi East 15.0 mph - N/A   Unknown
5:30 PM 59.0 °F - 44.6 °F 59% 29.74 in 6.2 mi East 15.0 mph - N/A   Unknown
6:00 PM 59.0 °F - 44.6 °F 59% 29.77 in 6.2 mi ENE 16.1 mph - N/A   Unknown
6:30 PM 57.2 °F - 41.0 °F 55% 29.77 in 6.2 mi ENE 17.3 mph - N/A   Unknown
7:00 PM 57.2 °F - 44.6 °F 63% 29.77 in 6.2 mi ENE 16.1 mph - N/A   Unknown
7:30 PM 55.4 °F - 46.4 °F 72% 29.77 in 6.2 mi ENE 12.7 mph - N/A   Unknown
8:00 PM 55.4 °F - 46.4 °F 72% 29.77 in 6.2 mi East 11.5 mph - N/A   Unknown
8:30 PM 53.6 °F - 46.4 °F 77% 29.80 in 6.2 mi East 8.1 mph - N/A   Unknown
9:00 PM 53.6 °F - 46.4 °F 77% 29.80 in 6.2 mi East 8.1 mph - N/A   Unknown
9:30 PM 53.6 °F - 46.4 °F 77% 29.80 in 6.2 mi ESE 6.9 mph - N/A   Unknown
10:00 PM 53.6 °F - 48.2 °F 82% 29.80 in 6.2 mi ESE 5.8 mph - N/A   Unknown
10:30 PM 50.0 °F - 46.4 °F 87% 29.83 in 6.2 mi SSE 2.3 mph - N/A   Unknown
11:00 PM 51.8 °F - 44.6 °F 76% 29.83 in 6.2 mi East 4.6 mph - N/A   Unknown
11:30 PM 51.8 °F - 44.6 °F 76% 29.83 in 6.2 mi East 3.5 mph - N/A   Unknown